Blacksburg, VA

6:44 PM EDT on August 29, 2016 (GMT -0400)
Virginia Tech

Weather History for KBCB - March, 2011

Change the Weather History Date:

Wednesday, March 23, 2011

  Actual Average Record
Temperature  
Mean Temperature 60 °F 44 °F  
Max Temperature 72 °F 56 °F 80 °F (1966)
Min Temperature 48 °F 32 °F 12 °F (2004)
Degree Days  
Heating Degree Days 5 21  
Month to date heating degree days 462 567  
Since 1 July heating degree days 4517 4615  
Cooling Degree Days 0 0  
Month to date cooling degree days 0 0  
Year to date cooling degree days 0 0  
Growing Degree Days 12 (Base 50)    
Moisture  
Dew Point 51 °F    
Average Humidity 75    
Maximum Humidity 100    
Minimum Humidity 49    
Precipitation  
Precipitation 0.30 in 0.13 in 1.30 in (1981)
Month to date precipitation 3.70 2.61  
Year to date precipitation 7.50 8.50  
Snow  
Snow 0.00 in - - ()
Month to date snowfall T  
Since 1 July snowfall 18.2  
Snow Depth 0.00 in    
Sea Level Pressure  
Sea Level Pressure 29.73 in    
Wind  
Wind Speed 7 mph (WSW)    
Max Wind Speed 22 mph    
Max Gust Speed 31 mph    
Visibility 10 miles    
Events Rain , Thunderstorm    
T = Trace of Precipitation, MM = Missing Value Source: NWS Daily Summary

Daily Weather History Graph

Daily Weather History Graph

Search for Another Location

Airport or City:

Trip Planner

Search our weather history database for the weather conditions in past years. The results will help you decide how hot, cold, wet, or windy it might be!

Date:

Astronomy

Mar. 23, 2011 Rise Set
Actual Time 7:21 AM EDT 7:35 PM EDT
Civil Twilight 6:55 AM EDT 8:01 PM EDT
Nautical Twilight 6:24 AM EDT 8:32 PM EDT
Astronomical Twilight 5:53 AM EDT 9:03 PM EDT
Moon No Moon Rise 9:37 AM EDT (3/23)
Length of Visible Light 13h 06m
Length of Day
12h 14m
Waning Gibbous, 79% of the Moon is Illuminated
Mar 23
Waning Gibbous
Mar 26
Last Quarter
Apr 3
New
Apr 11
First Quarter
Apr 17
Full

Hourly Weather History & Observations

Time (EDT) Temp. Dew Point Humidity Pressure Visibility Wind Dir Wind Speed Gust Speed Precip Events Conditions
12:00 AM 57.2 °F 51.8 °F 82% 29.90 in 10.0 mi Calm Calm - N/A   Clear
12:20 AM 57.2 °F 51.8 °F 82% 29.89 in 10.0 mi Calm Calm - N/A   Clear
12:40 AM 57.2 °F 51.8 °F 82% 29.88 in 10.0 mi Calm Calm - N/A   Clear
1:00 AM 59.0 °F 51.8 °F 77% 29.87 in 10.0 mi Calm Calm - N/A   Clear
1:20 AM 57.2 °F 51.8 °F 82% 29.85 in 10.0 mi South 4.6 mph - N/A   Clear
1:40 AM 60.8 °F 51.8 °F 72% 29.84 in 10.0 mi SE 4.6 mph - N/A   Clear
2:00 AM 60.8 °F 50.0 °F 68% 29.86 in 10.0 mi Calm Calm - N/A   Clear
2:20 AM 59.0 °F 50.0 °F 72% 29.86 in 10.0 mi Calm Calm - N/A   Clear
3:00 AM 59.0 °F 48.2 °F 67% 29.84 in 10.0 mi WSW 3.5 mph - N/A   Clear
3:20 AM 60.8 °F 46.4 °F 59% 29.84 in 10.0 mi Calm Calm - N/A   Clear
3:40 AM 57.2 °F 46.4 °F 67% 29.83 in 10.0 mi Calm Calm - N/A   Clear
4:20 AM 55.4 °F 46.4 °F 72% 29.83 in 10.0 mi Calm Calm - N/A   Clear
4:40 AM 51.8 °F 44.6 °F 76% 29.82 in 10.0 mi Calm Calm - N/A   Clear
5:00 AM 53.6 °F 46.4 °F 77% 29.82 in 10.0 mi Calm Calm - N/A   Clear
5:20 AM 53.6 °F 46.4 °F 77% 29.82 in 10.0 mi ESE 3.5 mph - N/A   Clear
5:40 AM 53.6 °F 46.4 °F 77% 29.82 in 10.0 mi SE 3.5 mph - N/A   Clear
6:00 AM 53.6 °F 48.2 °F 82% 29.81 in 10.0 mi Calm Calm - N/A   Clear
6:20 AM 55.4 °F 48.2 °F 77% 29.81 in 10.0 mi Calm Calm - N/A   Clear
6:40 AM 53.6 °F 48.2 °F 82% 29.81 in 10.0 mi ESE 4.6 mph - N/A   Clear
7:00 AM 53.6 °F 48.2 °F 82% 29.81 in 10.0 mi ESE 5.8 mph - N/A   Clear
7:20 AM 53.6 °F 48.2 °F 82% 29.81 in 10.0 mi ESE 3.5 mph - N/A   Clear
7:40 AM 51.8 °F 48.2 °F 88% 29.82 in 10.0 mi East 6.9 mph - N/A   Clear
8:20 AM 53.6 °F 50.0 °F 88% 29.80 in 10.0 mi Calm Calm - N/A   Clear
8:40 AM 55.4 °F 51.8 °F 88% 29.80 in 10.0 mi ESE 4.6 mph - N/A   Clear
9:00 AM 60.8 °F 51.8 °F 72% 29.79 in 10.0 mi SW 6.9 mph - N/A   Clear
9:20 AM 62.6 °F 51.8 °F 68% 29.77 in 10.0 mi WSW 4.6 mph - N/A   Clear
9:40 AM 62.6 °F 51.8 °F 68% 29.77 in 10.0 mi West 6.9 mph - N/A   Clear
10:00 AM 62.6 °F 51.8 °F 68% 29.75 in 10.0 mi WSW 6.9 mph - N/A   Clear
10:20 AM 64.4 °F 51.8 °F 64% 29.75 in 10.0 mi WSW 11.5 mph 17.3 mph N/A   Clear
10:40 AM 66.2 °F 53.6 °F 64% 29.73 in 10.0 mi West 13.8 mph 24.2 mph N/A   Clear
11:00 AM 68.0 °F 53.6 °F 60% 29.72 in 10.0 mi West 17.3 mph 28.8 mph N/A   Clear
11:20 AM 68.0 °F 51.8 °F 56% 29.70 in 10.0 mi WSW 13.8 mph 27.6 mph N/A   Clear
11:40 AM 69.8 °F 51.8 °F 53% 29.70 in 10.0 mi WSW 17.3 mph 25.3 mph N/A   Scattered Clouds
12:00 PM 71.6 °F 51.8 °F 50% 29.69 in 10.0 mi West 13.8 mph 23.0 mph N/A   Scattered Clouds
12:20 PM 71.6 °F 51.8 °F 50% 29.69 in 10.0 mi West 17.3 mph 23.0 mph N/A   Scattered Clouds
12:40 PM 69.8 °F 51.8 °F 53% 29.68 in 10.0 mi West 17.3 mph 24.2 mph N/A   Mostly Cloudy
1:00 PM 69.8 °F 51.8 °F 53% 29.67 in 10.0 mi West 8.1 mph 24.2 mph N/A   Overcast
1:20 PM 71.6 °F 51.8 °F 50% 29.66 in 10.0 mi WSW 12.7 mph 21.9 mph N/A   Scattered Clouds
1:40 PM 71.6 °F 53.6 °F 53% 29.65 in 10.0 mi West 12.7 mph 24.2 mph N/A   Scattered Clouds
2:00 PM 71.6 °F 53.6 °F 53% 29.64 in 10.0 mi West 11.5 mph 21.9 mph N/A   Scattered Clouds
2:20 PM 69.8 °F 53.6 °F 56% 29.64 in 10.0 mi West 12.7 mph 25.3 mph N/A   Mostly Cloudy
2:40 PM 71.6 °F 53.6 °F 53% 29.63 in 10.0 mi WSW 13.8 mph 19.6 mph N/A   Scattered Clouds
3:00 PM 69.8 °F 53.6 °F 56% 29.62 in 10.0 mi WSW 16.1 mph 26.5 mph N/A   Mostly Cloudy
3:20 PM 73.4 °F 53.6 °F 50% 29.60 in 10.0 mi WSW 11.5 mph - N/A   Mostly Cloudy
4:00 PM 71.6 °F 53.6 °F 53% 29.57 in 10.0 mi West 12.7 mph 21.9 mph N/A   Mostly Cloudy
4:20 PM 69.8 °F 53.6 °F 56% 29.56 in 10.0 mi WSW 16.1 mph 21.9 mph N/A   Mostly Cloudy
4:40 PM 66.2 °F 53.6 °F 64% 29.57 in 10.0 mi West 15.0 mph 26.5 mph N/A Thunderstorm Thunderstorm
5:00 PM 60.8 °F 55.4 °F 82% 29.59 in 3.0 mi West 11.5 mph 26.5 mph 0.02 in Rain , Thunderstorm Heavy Thunderstorms and Rain
5:20 PM 55.4 °F 51.8 °F 88% 29.63 in 7.0 mi WNW 12.7 mph 29.9 mph 0.05 in Rain , Thunderstorm Thunderstorms and Rain
5:40 PM 55.4 °F 53.6 °F 94% 29.56 in 10.0 mi SSW 11.5 mph - 0.06 in Rain , Thunderstorm Light Thunderstorms and Rain
6:00 PM 55.4 °F 53.6 °F 94% 29.57 in 10.0 mi West 4.6 mph 17.3 mph 0.01 in Rain , Thunderstorm Light Thunderstorms and Rain
6:20 PM 55.4 °F 53.6 °F 94% 29.57 in 7.0 mi West 8.1 mph - 0.02 in Rain Rain
6:40 PM 55.4 °F 53.6 °F 94% 29.56 in 10.0 mi WSW 10.4 mph 16.1 mph 0.02 in   Scattered Clouds
7:00 PM 57.2 °F 55.4 °F 94% 29.56 in 10.0 mi WSW 8.1 mph - N/A   Mostly Cloudy
7:20 PM 57.2 °F 55.4 °F 94% 29.57 in 10.0 mi West 8.1 mph 16.1 mph N/A   Overcast
7:40 PM 57.2 °F 53.6 °F 88% 29.55 in 10.0 mi WSW 8.1 mph 16.1 mph N/A   Overcast
8:00 PM 57.2 °F 53.6 °F 88% 29.56 in 10.0 mi WNW 6.9 mph - N/A Thunderstorm Mostly Cloudy
8:20 PM 57.2 °F 53.6 °F 88% 29.56 in 10.0 mi WNW 8.1 mph - N/A Rain Light Rain
8:40 PM 55.4 °F 53.6 °F 94% 29.60 in 7.0 mi NNW 16.1 mph 21.9 mph 0.04 in Rain , Thunderstorm Heavy Thunderstorms and Rain
9:00 PM 51.8 °F 48.2 °F 88% 29.63 in 10.0 mi NNW 21.9 mph 31.1 mph N/A Rain , Thunderstorm Light Thunderstorms and Rain
9:20 PM 51.8 °F 48.2 °F 88% 29.65 in 10.0 mi NW 11.5 mph 17.3 mph 0.03 in Rain Rain
9:40 PM 51.8 °F 48.2 °F 88% 29.65 in 10.0 mi NW 10.4 mph 23.0 mph 0.07 in Rain Rain
10:00 PM 50.0 °F 48.2 °F 94% 29.63 in 10.0 mi WNW 6.9 mph 24.2 mph N/A Rain Light Rain
10:20 PM 50.0 °F 48.2 °F 94% 29.61 in 10.0 mi SW 5.8 mph - N/A   Drizzle
10:40 PM 48.2 °F 48.2 °F 100% 29.58 in 10.0 mi SW 4.6 mph - N/A   Overcast
11:00 PM 50.0 °F 48.2 °F 94% 29.59 in 10.0 mi West 5.8 mph - N/A   Overcast
11:20 PM 50.0 °F 48.2 °F 94% 29.57 in 10.0 mi SW 6.9 mph - N/A   Mostly Cloudy